When you browse on this site, cookies collect data to enhance your experience and personalize the content and advertising you see.
Visit our Privacy Policy to learn more. By continuing to use the site, you agree to this use of cookies and data.
  • In Hungary
  • List of Countries
  • For 7 days
  • Water Temperature
  • Weather Map
  • News
  • Weather Widgets
  • user-avatar
    Login

    Hourly Weather Wien

    Today, 2 June, Tuesday

    Time Temperature Precipitation Wind Pressure Humidity
    00:00 +12°C° 0 mm 2 mps 745 mmHg 79%
    01:00 +12°C° 0 mm 2 mps 745 mmHg 80%
    02:00 +10°C° 0 mm 2 mps 745 mmHg 82%
    03:00 +10°C° 0 mm 2 mps 744 mmHg 83%
    04:00 +9°C° 0 mm 3 mps 744 mmHg 85%
    05:00 +11°C° 0 mm 3 mps 744 mmHg 80%
    06:00 +12°C° 0 mm 4 mps 744 mmHg 74%
    07:00 +14°C° 0 mm 5 mps 744 mmHg 69%
    08:00 +15°C° 0.1 mm 5 mps 744 mmHg 66%
    09:00 +16°C° 0.1 mm 6 mps 743 mmHg 63%
    10:00 +19°C° 0.1 mm 6 mps 743 mmHg 59%
    11:00 +19°C° 0.2 mm 6 mps 743 mmHg 57%
    12:00 +20°C° 0.2 mm 6 mps 743 mmHg 55%
    13:00 +20°C° 0.2 mm 6 mps 742 mmHg 52%
    14:00 +20°C° 0.1 mm 6 mps 742 mmHg 52%
    15:00 +20°C° 0.1 mm 6 mps 742 mmHg 52%
    16:00 +20°C° 0.1 mm 6 mps 741 mmHg 52%
    17:00 +19°C° 0.1 mm 5 mps 741 mmHg 58%
    18:00 +18°C° 0.1 mm 4 mps 741 mmHg 64%
    19:00 +15°C° 0.1 mm 4 mps 741 mmHg 70%
    20:00 +16°C° 0 mm 3 mps 741 mmHg 73%
    21:00 +14°C° 0 mm 3 mps 741 mmHg 76%
    22:00 +14°C° 0 mm 2 mps 741 mmHg 79%
    23:00 +13°C° 0.1 mm 2 mps 741 mmHg 82%

    Tomorrow, 3 June, Wednesday

    Time Temperature Precipitation Wind Pressure Humidity
    00:00 +13°C° 0.1 mm 2 mps 740 mmHg 84%
    01:00 +13°C° 0.1 mm 2 mps 740 mmHg 86%
    02:00 +13°C° 0.1 mm 2 mps 739 mmHg 86%
    03:00 +11°C° 0.1 mm 3 mps 739 mmHg 87%
    04:00 +11°C° 0.1 mm 3 mps 738 mmHg 88%
    05:00 +13°C° 0 mm 3 mps 738 mmHg 84%
    06:00 +14°C° 0 mm 3 mps 738 mmHg 80%
    07:00 +15°C° 0 mm 4 mps 738 mmHg 76%
    08:00 +18°C° 0.3 mm 4 mps 737 mmHg 70%
    09:00 +19°C° 0.3 mm 4 mps 737 mmHg 64%
    10:00 +21°C° 0.3 mm 4 mps 737 mmHg 57%
    11:00 +21°C° 0.5 mm 4 mps 737 mmHg 56%
    12:00 +22°C° 0.5 mm 4 mps 736 mmHg 55%
    13:00 +22°C° 0.5 mm 4 mps 736 mmHg 53%
    14:00 +22°C° 0.1 mm 3 mps 735 mmHg 53%
    15:00 +23°C° 0.1 mm 2 mps 735 mmHg 53%
    16:00 +23°C° 0.1 mm 2 mps 735 mmHg 53%
    17:00 +22°C° 0 mm 1 mps 735 mmHg 59%
    18:00 +21°C° 0 mm 1 mps 734 mmHg 64%
    19:00 +20°C° 0 mm 1 mps 734 mmHg 69%
    20:00 +19°C° 0 mm 1 mps 734 mmHg 72%
    21:00 +16°C° 0 mm 1 mps 734 mmHg 75%
    22:00 +15°C° 0 mm 1 mps 734 mmHg 78%
    23:00 +15°C° 0 mm 1 mps 734 mmHg 80%

    Day after tomorrow, 4 June, Thursday

    Time Temperature Precipitation Wind Pressure Humidity
    00:00 +14°C° 0 mm 1 mps 733 mmHg 81%
    01:00 +14°C° 0 mm 1 mps 733 mmHg 83%
    02:00 +13°C° 0 mm 1 mps 733 mmHg 85%
    03:00 +13°C° 0 mm 1 mps 732 mmHg 86%
    04:00 +12°C° 0 mm 1 mps 732 mmHg 88%
    05:00 +14°C° 0 mm 1 mps 732 mmHg 86%
    06:00 +15°C° 0 mm 1 mps 732 mmHg 83%
    07:00 +16°C° 0 mm 1 mps 731 mmHg 81%
    08:00 +18°C° 0 mm 1 mps 731 mmHg 76%
    09:00 +19°C° 0 mm 2 mps 731 mmHg 71%
    10:00 +20°C° 0 mm 2 mps 731 mmHg 66%
    11:00 +21°C° 0 mm 2 mps 731 mmHg 64%
    12:00 +23°C° 0 mm 2 mps 730 mmHg 62%
    13:00 +24°C° 0 mm 3 mps 730 mmHg 60%
    14:00 +24°C° 0.1 mm 3 mps 730 mmHg 61%
    15:00 +23°C° 0.1 mm 4 mps 729 mmHg 61%
    16:00 +25°C° 0.1 mm 4 mps 729 mmHg 62%
    17:00 +23°C° 0.1 mm 4 mps 728 mmHg 64%
    18:00 +22°C° 0.1 mm 4 mps 728 mmHg 65%
    19:00 +21°C° 0.1 mm 5 mps 727 mmHg 67%
    20:00 +20°C° 0 mm 4 mps 727 mmHg 67%
    21:00 +19°C° 0 mm 4 mps 727 mmHg 67%
    22:00 +19°C° 0 mm 4 mps 727 mmHg 67%
    23:00 +18°C° 0.1 mm 4 mps 727 mmHg 70%

    5 June, Friday

    Time Temperature Precipitation Wind Pressure Humidity
    00:00 +16°C° 0.1 mm 5 mps 727 mmHg 73%
    01:00 +15°C° 0.1 mm 6 mps 727 mmHg 76%
    02:00 +14°C° 0 mm 5 mps 727 mmHg 78%
    03:00 +14°C° 0 mm 4 mps 728 mmHg 79%
    04:00 +13°C° 0 mm 3 mps 728 mmHg 81%
    05:00 +14°C° 1 mm 2 mps 728 mmHg 84%
    06:00 +14°C° 1 mm 2 mps 728 mmHg 88%
    07:00 +13°C° 1 mm 2 mps 728 mmHg 92%
    08:00 +14°C° 2.4 mm 2 mps 728 mmHg 91%
    09:00 +13°C° 2.4 mm 3 mps 728 mmHg 91%
    10:00 +13°C° 2.4 mm 3 mps 728 mmHg 90%
    11:00 +12°C° 0.4 mm 4 mps 729 mmHg 89%
    12:00 +12°C° 0.4 mm 5 mps 729 mmHg 88%
    13:00 +11°C° 0.4 mm 6 mps 729 mmHg 86%
    14:00 +11°C° 0.6 mm 6 mps 730 mmHg 87%
    15:00 +11°C° 0.6 mm 6 mps 730 mmHg 87%
    16:00 +12°C° 0.6 mm 5 mps 730 mmHg 87%
    17:00 +10°C° 0.5 mm 5 mps 731 mmHg 88%
    18:00 +10°C° 0.5 mm 5 mps 731 mmHg 88%
    19:00 +10°C° 0.5 mm 5 mps 732 mmHg 89%
    20:00 +10°C° 0.1 mm 5 mps 732 mmHg 88%
    21:00 +10°C° 0.1 mm 5 mps 733 mmHg 87%
    22:00 +10°C° 0.1 mm 5 mps 734 mmHg 86%
    23:00 +9°C° 0 mm 5 mps 734 mmHg 84%

    6 June, Saturday

    Time Temperature Precipitation Wind Pressure Humidity
    00:00 +9°C° 0 mm 5 mps 734 mmHg 83%
    01:00 +9°C° 0 mm 5 mps 734 mmHg 81%
    02:00 +9°C° 0 mm 5 mps 734 mmHg 80%
    03:00 +9°C° 0 mm 5 mps 735 mmHg 78%
    04:00 +9°C° 0 mm 5 mps 735 mmHg 77%
    05:00 +10°C° 0 mm 6 mps 736 mmHg 74%
    06:00 +11°C° 0 mm 7 mps 736 mmHg 72%
    07:00 +11°C° 0 mm 7 mps 737 mmHg 69%
    08:00 +14°C° 0 mm 7 mps 737 mmHg 63%
    09:00 +15°C° 0 mm 7 mps 737 mmHg 57%
    10:00 +17°C° 0 mm 7 mps 737 mmHg 50%
    11:00 +17°C° 0 mm 6 mps 738 mmHg 49%
    12:00 +19°C° 0 mm 6 mps 738 mmHg 48%
    13:00 +20°C° 0 mm 6 mps 738 mmHg 46%
    14:00 +20°C° 0 mm 6 mps 738 mmHg 49%
    15:00 +19°C° 0 mm 6 mps 738 mmHg 51%
    16:00 +19°C° 0 mm 6 mps 738 mmHg 54%
    17:00 +18°C° 0 mm 4 mps 738 mmHg 58%
    18:00 +18°C° 0 mm 3 mps 738 mmHg 63%
    19:00 +17°C° 0 mm 2 mps 738 mmHg 67%
    20:00 +16°C° 0 mm 2 mps 738 mmHg 65%
    21:00 +16°C° 0 mm 2 mps 738 mmHg 63%
    22:00 +16°C° 0 mm 2 mps 739 mmHg 61%
    23:00 +16°C° 0 mm 2 mps 739 mmHg 62%

    7 June, Sunday

    Time Temperature Precipitation Wind Pressure Humidity
    00:00 +15°C° 0 mm 2 mps 738 mmHg 63%
    01:00 +15°C° 0 mm 2 mps 738 mmHg 64%
    02:00 +14°C° 0 mm 1 mps 738 mmHg 68%
    03:00 +13°C° 0 mm 1 mps 738 mmHg 72%
    04:00 +12°C° 0 mm 1 mps 738 mmHg 77%
    05:00 +14°C° 0 mm 1 mps 738 mmHg 73%
    06:00 +15°C° 0 mm 1 mps 738 mmHg 69%
    07:00 +16°C° 0 mm 1 mps 738 mmHg 66%
    08:00 +18°C° 0 mm 2 mps 738 mmHg 64%
    09:00 +19°C° 0 mm 3 mps 738 mmHg 61%
    10:00 +20°C° 0 mm 4 mps 737 mmHg 59%
    11:00 +21°C° 0 mm 4 mps 737 mmHg 55%
    12:00 +23°C° 0 mm 4 mps 737 mmHg 52%
    13:00 +25°C° 0 mm 4 mps 737 mmHg 49%
    14:00 +25°C° 0 mm 4 mps 737 mmHg 50%
    15:00 +25°C° 0 mm 4 mps 737 mmHg 52%
    16:00 +25°C° 0 mm 3 mps 737 mmHg 53%
    17:00 +24°C° 0.1 mm 3 mps 737 mmHg 58%
    18:00 +22°C° 0.1 mm 3 mps 737 mmHg 64%
    19:00 +21°C° 0.1 mm 3 mps 737 mmHg 69%
    20:00 +20°C° 0.1 mm 3 mps 738 mmHg 74%
    21:00 +18°C° 0.1 mm 3 mps 738 mmHg 78%
    22:00 +17°C° 0.1 mm 4 mps 739 mmHg 82%
    23:00 +17°C° 0.1 mm 4 mps 739 mmHg 84%
    Show more